User: anonymous   Login
Location: Oshawa
(43.9000°N, 78.8670°W)
Time: 18:18:29
(UTC-04:00)
Language:

Altair - Orbit

View from above orbital plane
View from above orbital plane
View from above satellite
View from above satellite

Ground track
Ground track

The orbit data is extracted from the following two-line orbital elements,

1    50U 60009B   16175.84440291 -.00000087 +00000-0 -17888-4 0  9995
2    50 047.2331 315.8419 0113287 310.4784 048.6175 12.20095639492628
Epoch (UTC): 23 June 2016 20:15:56
Eccentricity: 0.0113287
inclination: 47.2331°
perigee height: 1502 km
apogee height: 1682 km
right ascension of ascending node: 315.8419°
argument of perigee: 310.4784°
revolutions per day: 12.20095639
mean anomaly at epoch: 48.6175°
orbit number at epoch: 49262

The dashed part of the orbit path shows where the satellite is in the earth's shadow,  

DLR